Home   Weather   Sarnia   Past weeks

Flag for Canada Past Weather in Sarnia, Ontario, Canada — Yesterday and Last 2 Weeks

Now
52 °F

Mostly cloudy.


Feels Like: 51 °F
Forecast: N/A
Wind: 5 mph from East

Location: Sarnia Airport

Current Time: Apr 30, 2017 at 5:02:51 pm

Latest Report: Apr 30, 2017 at 4:09 pm


Visibility: 9 mi

Pressure: 29.90 "Hg

Humidity: 88%

Dew Point: 48 °F

Location of SarniaLocation

Past Weather in Sarnia — Graph

°F

Sarnia Temperature Yesterday

Maximum temperature yesterday: 55 °F (at 12:00 am)
Minimum temperature yesterday: 39 °F (at 5:00 am)
Average temperature yesterday: 41 °F

High & Low Weather Summary for the Past Weeks

 TemperatureHumidityPressure
High82 °F (Apr 15, 4:34 pm)100% (Apr 16, 11:32 pm)30.38 "Hg (Apr 16, 11:32 pm)
Low32 °F (Apr 23, 4:00 am)26% (Apr 23, 3:00 pm)29.45 "Hg (Apr 27, 1:09 pm)
Average52 °F75%29.96 "Hg
* Reported Apr 15 3:00 pm — Apr 30 3:41 pm, Sarnia, Weather by CustomWeather, © 2017

Note: Actual official high and low records may vary slightly from our data, if they occured in-between our weather recording intervals... More about our weather records

Advertising

Sarnia Weather History for the Previous 24 Hours

Scroll right to see more
 ConditionsComfort  
Time TempWeatherWind HumidityBarometerVisibility
3:41 pm
Sun, Apr 30
52 °FScattered clouds.7 mph88%29.90 "Hg9 mi
3:28 pm52 °FLight rain. Broken clouds.8 mph88%29.91 "Hg9 mi
3:23 pm52 °FLight rain. Fog.8 mph88%29.92 "Hg6 mi
2:46 pm50 °FLight rain. Fog.5 mph88%29.94 "Hg6 mi
2:30 pm50 °FLight rain. Overcast.7 mph82%29.95 "Hg5 mi
2:10 pm50 °FLight rain. Overcast.9 mph82%29.94 "Hg9 mi
1:55 pm50 °FOvercast.10 mph76%29.96 "Hg9 mi
1:00 pm48 °FOvercast.12 mph82%29.98 "Hg9 mi
12:00 pm48 °FOvercast.10 mph76%30.02 "Hg9 mi
11:58 am48 °FOvercast.9 mph76%30.02 "Hg9 mi
11:00 am46 °FOvercast.9 mph76%30.03 "Hg9 mi
10:00 am45 °FOvercast.12 mph81%30.06 "Hg9 mi
9:00 am45 °FOvercast.13 mph81%30.07 "Hg9 mi
8:00 am45 °FOvercast.10 mph81%30.09 "Hg9 mi
7:00 am45 °FOvercast.9 mph76%30.09 "Hg9 mi
6:35 am45 °FOvercast.9 mph81%30.09 "Hg9 mi
6:00 am45 °FOvercast.10 mph81%30.10 "Hg9 mi
5:03 am43 °FOvercast.12 mph87%30.11 "Hg9 mi
4:27 am43 °FLight rain. Fog.7 mph87%30.15 "Hg6 mi
4:00 am43 °FLight rain. Fog.7 mph87%30.15 "Hg5 mi
3:02 am45 °FLight rain. Mostly cloudy.10 mph76%30.11 "Hg9 mi
2:01 am45 °FLight rain. Overcast.13 mph76%30.16 "Hg9 mi
1:00 am43 °FMostly cloudy.16 mph81%30.18 "Hg9 mi
12:00 am41 °FOvercast.13 mph87%30.25 "Hg9 mi
11:00 pm
Sat, Apr 29
41 °FOvercast.14 mph81%30.28 "Hg9 mi
10:00 pm39 °FOvercast.15 mph87%30.28 "Hg9 mi
9:00 pm39 °FOvercast.14 mph81%30.27 "Hg9 mi
8:00 pm39 °FOvercast.16 mph75%30.26 "Hg9 mi
7:00 pm39 °FOvercast.10 mph75%30.29 "Hg9 mi
6:55 pm39 °FOvercast.12 mph75%30.27 "Hg9 mi
6:34 pm39 °FMostly cloudy.10 mph75%30.28 "Hg9 mi
6:00 pm39 °FOvercast.17 mph75%30.24 "Hg9 mi
5:00 pm41 °FOvercast.18 mph76%30.24 "Hg9 mi
Weather by CustomWeather, © 2017

See weather overviewHow to use our weather pages